Время (UTC), дата Ветер
(°,м/с) 
Видим.   Явления Облачность Т
(°С)
Тd
(°С)
f(%) Тe
(°С)
Pmin
(гПа)
dP
(гПа)
Po
(мм)
O2
(г/м3)
Тmin Tmax R s Состояние
почвы
00 01.09.11 150 (ЮВ) 10 км    ясно 
+17.9 +11.1 64 +22  1013.7  -0.4  750  281           
03 01.09.11 160 (Ю) >10 км    10/10 600 м 
[Sc]
+18.3 +12 67 +24  1013.4  -0.3  750  281           
06 01.09.11 200 (Ю) >10 км    8/0 средняя, верхняя 
[Ac cast|Ci fib]
+23.9 +9.9 41 +25  1013  -0.1  749  276  +17         
09 01.09.11 240 (ЮЗ) >10 км    1/0 верхняя 
[Ci sp]
+29.1 +7 25 +29  1011.4  -1.3  749  271           
12 01.09.11 250 (З) >10 км    9/1 600 м верхняя 
[Cu med, cong|Ci sp]
+28.7 +5.6 23 +29  1011.4  -0.1  748  272           
15 01.09.11 210 (ЮЗ) >10 км    8/8 600 м 
[Sc]
+25.3 +7.9 33 +25  1011.5  748  275           
18 01.09.11 160 (Ю) 10 км  {дождь}  3/0 средняя 
[Ac lent]
+20.3 +10.6 54 +22  1012  0.2  749  279    +29.6       
21 01.09.11 160 (Ю) 10 км    ясно 
+18.6 +10.9 61 +22  1012  -0.1  749  280           
00 02.09.11 140 (ЮВ) 10 км    8/0 средняя 
[Ac cast]
+18.9 +10.4 58 +22  1010.5  -1.3  748  280           
03 02.09.11 160 (Ю) >10 км    9/5 1000 м средняя 
[Sc|Ac cast]
+19.4 +10.1 55 +22  1010.5  748  279           
06 02.09.11 150 (ЮВ) >10 км  слаб. дождь  10/4 1000 м средняя 
[Sc|Ac cast]
+20 +11.7 59 +24  1010  -0.5  747  278  +17.8    0.0     
09 02.09.11 200 (Ю) >10 км    8/0 средняя 
[Ac cast]
+21.9 +10.4 48 +24  1010  0.1  747  277           
12 02.09.11 180 (Ю) >10 км    10/0 средняя, верхняя 
[Ac cast|Ci]
+28.1 +9.7 32 +29  1008.2  -1.6  746  271           
15 02.09.11 150 (ЮВ) >10 км    10/0 верхняя 
[Ci]
+24.6 +9.2 38 +25  1007.7  -0.6  746  274           
18 02.09.11 160 (Ю) 10 км    10/0 средняя 
[Ac As]
+20.8 +8.7 46 +21  1007.2  -0.7  745  277    +28.6  0.0     
21 02.09.11 160 (Ю) 10 км    10/0 средняя 
[Ac As]
+20.5 +9 48 +21  1006.5  -0.7  745  277           
00 03.09.11 тихо ()   10 км  слаб. дождь  10/10 600 м 
[Ns]
+18 +12 68 +22  1015.4  -1.2  744  279           
03 03.09.11 290 (З) 10 км  {дождь}  10/10 600 м 
[Sc]
+17 +13.7 81 +25  1004.9  -0.5  743  279           
06 03.09.11 240 (ЮЗ) >10 км  {дождь}  10/10 600 м 
[Sc]
+17.8 +14.3 80 +27  1006.2  1.3  744  279  +16.1    0.3     
09 03.09.11 240 (ЮЗ) >10 км    6/4 600 м верхняя 
[Cu med, cong|Ci fib]
+22.1 +12.9 56 +28  1006.8  0.8  745  275           
12 03.09.11 280 (З) >10 км    10/6 600 м верхняя 
[Sc diur, vesp|Ci]
+23.1 +11.8 49 +27  1007.4  0.6  745  275           
15 03.09.11 тихо ()   >10 км  {дождь}  10/6 600 м средняя 
[Sc|Ac cast]
+20.5 +13.8 65 +27  1007.2  -0.2  745  276           
18 03.09.11 250 (З) 10 км  гроза без осадков{дождь}  10/10 600 м кучево-дожд. 
[Cb calv]
+18.4 +15 81 +28  1007.2  -0.1  745  278    +23.7  0.0     
21 03.09.11 260 (З) 10 км  {гроза, ливн. осадки}  1/1 200 м 
[Frnb]
+15.5 +13.2 86 +22  1008.8  -1.4  746  282           
00 04.09.11 300 (СЗ) 10 км  {гроза, ливн. осадки}  10/10 600 м 
[Sc diur, vesp]
+14.6 +13 90 +20  1010.4  1.6  747  283           
03 04.09.11 230 (ЮЗ) >10 км    10/10 600 м 
[Sc]
+13 +11.5 91 +17  1011.2  0.7  748  285           
06 04.09.11 270 (З) >10 км    1/0 средняя 
[Ac lent]
+15.6 +11.1 75 +20  1013.2  749  284  +13       
09 04.09.11 310 (СЗ) >10 км    4/1 600 м средняя 
[Cu med, cong|Ac cast]
+19.4 +10.1 55 +22  1013.4  0.4  750  280           
12 04.09.11 330 (СЗ) >10 км    4/1 600 м средняя 
[Cu med, cong|Ac cast]
+20.4 +8.9 48 +20  1013.9  0.5  750  280           
15 04.09.11 330 (СЗ) >10 км    6/0 верхняя 
[Ci fib]
+19.9 +9.2 50 +21  1014.3  0.4  750  280           
18 04.09.11 тихо ()   10 км    ясно 
+15.8 +10.5 71 +18  1015.5  751  284    +21.3       
21 04.09.11 тихо ()   10 км    4/0 средняя 
[Ac cast]
+12.8 +10.5 86 +15  1015.6  751  287           
00 05.09.11 030 (СВ) 10 км    ясно 
+12.7 +10.4 86 +16  1016  0.4  751  287           
03 05.09.11 тихо ()   >10 км    8/3 600 м верхняя 
[Sc|Ci fib]
+11.4 +9.8 90 +12  1016.2  0.1  751  289           
06 05.09.11 310 (СЗ) >10 км    9/0 верхняя 
[Ci fib]
+17.2 +10.9 66 +21  1015.9  751  283  +11         
09 05.09.11 290 (З) >10 км    8/3 600 м средняя, верхняя 
[Cu med, cong|Ac cast|Ci fib]
+19.6 +9.5 52 +21  1015.7  -0.1  751  281           
12 05.09.11 350 (С) >10 км    9/3 600 м средняя, верхняя 
[Sc diur, vesp|Ac cast|Ci fib]
+21 +8.5 45 +21  1015.3  -0.3  751  280           
15 05.09.11 330 (СЗ) >10 км    8/3 600 м средняя, верхняя 
[Sc diur, vesp|Ac cast|Ci fib]
+19.8 +8 46 +21  1014.8  -0.6  751  281           
18 05.09.11 010 (С) 10 км    6/0 средняя 
[Ac cast]
+16.1 +8.5 61 +17  1015.6  0.6  751  284    +21.6       
21 05.09.11 360 (С) 10 км    ясно 
+12.7 +7.6 71 +13  1014  -0.9  750  288           
00 06.09.11 360 (С) 10 км    ясно 
+10.8 +7.9 82 +11  1013.5  -1.4  749  289           
03 06.09.11 010 (С) >10 км    10/0 средняя 
[Ac und]
+10.1 +7.8 86 +10  1011.9  -1.7  748  289  +10        сухая 
06 06.09.11 010 (С) >10 км  слаб. дождь  10/10 600 м 
[Sc]
+10.7 +8.9 89 +10  1010.5  -1.3  747  288    +10       
09 06.09.11 030 (СВ) >10 км  {дождь}  10/10 600 м 
[Sc]
+12.1 +9.5 84 +13  1007.7  -2.7  745  286           
12 06.09.11 340 (С) 4{11}  10 км  {дождь}  10/10 600 м 
[Sc]
+13.1 +9.2 77 +13  1006.2  -1.4  744  284           
15 06.09.11 030 (СВ) 4-11{11}  10 км  слаб. дождь  10/10 600 м 
[Sc]
+12.3 +9.8 85 +13  1005.4  -0.9  743  285           
18 06.09.11 060 (СВ) 3{10}  4000 м  дождь  10/10 300 м 
[Frnb|Ns]
+12 +10.7 92 +14  1003  -2.4  742  284    +13.1     
21 06.09.11 020 (С) 10 км  {дождь}  10/10 600 м 
[Sc]
+12.2 +11.4 95 +16  1001.7  -1.3  741  283           
00 07.09.11 030 (СВ) 10 км  {гроза, ливн. осадки}  10/6 300 м средняя 
[Frnb|As op]
+13.5 +12.6 94 +19  1000.8  -0.7  740  282           
03 07.09.11 050 (СВ) 10 км  слаб. ливневой дождь{гроза}  10/10 300 м кучево-дожд. 
[Cb cap]
+13.6 +12.9 96 +20  999.7  -1.1  739  281           
06 07.09.11 090 (В) >10 км  {гроза, ливн. осадки}  10/10 600 м 
[Sc diur, vesp]
+13.6 +11.3 86 +17  1000  0.3  740  282  +11.8       
09 07.09.11 100 (В) >10 км  {ливн. осадки, дождь}  10/10 600 м кучево-дожд. 
[Cb cap]
+13.6 +10.8 83 +17  1000.1  0.1  740  282           
12 07.09.11 090 (В) >10 км  {ливн. осадки, дождь}  10/10 600 м 
[Sc diur, vesp]
+14.3 +10.3 77 +17  1000.2  0.1  740  281           
15 07.09.11 100 (В) 10 км  слаб. дождь  10/10 600 м 
[Sc]
+13.1 +11.4 89 +16  1000.3  0.1  740  282           
18 07.09.11 090 (В) 10 км    10/10 600 м 
[Sc]
+12.2 +11.3 94 +15  1000.7  0.3  740  283    +14.3  0.8     
21 07.09.11 100 (В) 10 км  {дождь}  10/10 600 м 
[Sc]
+12 +10.9 93 +15  1000.9  0.2  740  284           
00 08.09.11 080 (В) 10 км  {дождь}  10/10 600 м 
[Sc]
+11.8 +10.4 91 +14  1001.1  0.2  740  284           
03 08.09.11 070 (В) >10 км  в посл. час дождь  10/10 600 м 
[Sc]
+12 +9.6 85 +13  1000.6  -0.5  740  284           
06 08.09.11 080 (В) >10 км  {дождь}  10/10 600 м 
[Sc]
+12.4 +9.9 85 +15  1000.5  -0.1  740  283         
09 08.09.11 080 (В) >10 км    10/10 600 м 
[Sc]
+12.9 +9.2 78 +13  1000.5  0.1  740  283           
12 08.09.11 100 (В) >10 км    10/10 600 м 
[Sc]
+14.3 +9 70 +16  1000.7  0.2  740  282           
15 08.09.11 090 (В) >10 км    8/4 600 м средняя 
[Sc|Ac und]
+13.6 +8.9 73 +15  1000.7  740  282           
18 08.09.11 060 (СВ) 10 км    4/3 600 м средняя 
[Sc|Ac cast]
+12.7 +10.2 85 +16  1000.9  0.2  740  283    +14.5       
21 08.09.11 110 (В) 10 км    8/3 600 м средняя 
[Sc|Ac cast]
+11.9 +10.2 89 +15  1001  740  284           
00 09.09.11 110 (В) 10 км    4/0 средняя 
[Ac cast]
+11.2 +9.8 91 +13  1001  740  285           
03 09.09.11 110 (В) 2000 м  дымка  10/10 300 м 
[St]
+10.6 +10.2 97 +14  1001.1  740  285           
06 09.09.11 160 (Ю) 10 км    10/10 300 м 
[Frnb]
+13.4 +11.5 88 +18  1001.3  0.4  740  282  +10.1         
09 09.09.11 160 (Ю) 10 км    9/8 600 м верхняя 
[Sc|Ci fib]
+16.4 +9.7 65 +18  1002  0.7  741  280           
12 09.09.11 160 (Ю) 10 км    9/1 600 м средняя, верхняя 
[Sc|Ac cast|Ci fib]
+17 +9.4 61 +19  1002.1  0.2  741  279           
15 09.09.11 110 (В) 10 км    10/10 600 м 
[Sc]
+16.4 +10.8 69 +19  1001.5  -0.7  741  280           
18 09.09.11 100 (В) 10 км  слаб. дождь  10/10 600 м 
[Sc]
+15.4 +12.1 81 +19  1001  -0.4  740  280    +17.5       
21 09.09.11 120 (ЮВ) 10 км  {дождь}  10/10 600 м 
[Sc]
+15.6 +13.1 85 +22  999.3  -1.7  739  279           
00 10.09.11 140 (ЮВ) 10 км  слаб. дождь  10/10 600 м 
[Sc]
+15.6 +14.2 91 +24  998.2  -1.1  738  278           
03 10.09.11 140 (ЮВ) >10 км  в посл. час дождь  10/9 300 м средняя 
[St|Ac und]
+15.4 +14.3 93 +24  997.2  -1  737  278           
06 10.09.11 150 (ЮВ) >10 км  слаб. дождь  10/10 600 м 
[Sc]
+15.5 +13.7 89 +23  997.3  0.1  738  278    +15.2     
09 10.09.11 120 (ЮВ) >10 км  {дождь}  10/10 600 м 
[Sc]
+16.3 +15.1 93 +26  994.6  -2.5  736  277           
12 10.09.11 260 (З) >10 км  слаб. дождь  10/10 600 м 
[Sc]
+13.4 +11.3 87 +17  993.4  -1.4  735  280           
15 10.09.11 180 (Ю) >10 км  {дождь}  6/3 600 м средняя 
[Sc|Ac lent]
+13 +11.3 89 +17  995.6  2.2  736  281           
18 10.09.11 180 (Ю) 10 км  {дождь}  3/0 средняя 
[Ac cast]
+11.8 +10.6 92 +15  996.3  0.6  737  283    +16.3  10     
21 10.09.11 170 (Ю) 10 км    8/0 средняя 
[Ac cast]
+11.3 +10.3 94 +14  997.2  0.8  737  283           
00 11.09.11 150 (ЮВ) 10 км    9/9 300 м 
[Frnb]
+11.3 +10.5 95 +14  997.4  0.2  737  283           
03 11.09.11 150 (ЮВ) 10 км    9/9 300 м 
[St]
+11.7 +10.7 94 +14  997.1  -0.3  737  283           
06 11.09.11 140 (ЮВ) >10 км    10/10 300 м 
[St]
+12.1 +10.6 91 +14  997.6  0.5  738  283  +11         
09 11.09.11 160 (Ю) 10 км  слаб. дождь  10/8 300 м средняя 
[St|Ac inh]
+13.3 +12 92 +18  997.1  -0.4  737  281           
12 11.09.11 160 (Ю) 10 км  слаб. дождь  10/5 300 м средняя 
[St|Ac inh]
+12.4 +11.1 92 +16  998.3  1.1  738  282           
15 11.09.11 150 (ЮВ) 10 км  слаб. дождь  10/10 300 м 
[Frnb]
+12.3 +11.2 93 +15  999.1  -0.8  739  283           
18 11.09.11 150 (ЮВ) 10 км  слаб. дождь  10/10 300 м 
[Ns]
+12.4 +10.9 91 +15  999.2  -0.1  739  283    +13.7     
21 11.09.11 150 (ЮВ) 10 км  в посл. час дождь  6/3 300 м средняя 
[Frnb|As trans]
+11.8 +10.2 90 +14  999.3  0.1  739  283           
00 12.09.11 120 (ЮВ) 10 км  {дождь}  10/0 средняя 
[Ac cast]
+11.4 +9.6 89 +13  985.8  -99.9  739  284           
03 12.09.11 130 (ЮВ) >10 км    10/4 600 м средняя, верхняя 
[Sc|Ac lent|Ci fib]
+11 +8.8 86 +11  1000.7  0.8  740  285           
06 12.09.11 110 (В) >10 км  слаб. дождь  10/10 600 м 
[Sc]
+12 +9.2 83 +12  1001.5  0.8  741  284  +10.5       
09 12.09.11 130 (ЮВ) >10 км  {дождь}  10/10 600 м 
[Sc]
+12.6 +9.5 81 +13  1002.1  0.5  741  284           
12 12.09.11 120 (ЮВ) >10 км  слаб. дождь  10/10 600 м 
[Sc]
+12.4 +10.3 87 +16  1002.8  0.7  741  284           
15 12.09.11 100 (В) 10 км  {дождь}  10/10 600 м 
[Sc]
+12.2 +10.3 88 +15  1003.1  0.3  742  284           
18 12.09.11 100 (В) 10 км  слаб. дождь  10/10 600 м 
[Sc]
+11.6 +10.8 95 +14  1003.2  0.1  742  285    +13.2  0.5     
21 12.09.11 110 (В) 10 км  в посл. час дождь  10/10 600 м 
[Sc]
+11.8 +11 95 +15  1003.1  -0.1  742  284           
00 13.09.11 080 (В) 10 км  {дождь}  10/10 600 м 
[Sc]
+11.5 +10.7 95 +14  1003.4  0.3  742  285           
03 13.09.11 070 (В) >10 км    10/3 600 м средняя 
[Sc|Ac cast]
+11.4 +10.6 95 +15  1003.5  0.1  742  285           
06 13.09.11 060 (СВ) 10 км    10/10 300 м 
[St]
+11.7 +10.3 91 +15  1003.5  742  285  +11.2       
09 13.09.11 090 (В) 10 км    9/6 600 м кучево-дожд., средняя 
[Cb calv|Ac cast]
+14.3 +9.2 71 +16  1003.5  0.1  742  282           
12 13.09.11 070 (В) 10 км  слаб. дождь  10/10 600 м 
[Sc]
+13.6 +9.7 77 +16  1003.9  0.4  742  283           
15 13.09.11 040 (СВ) 10 км  {дождь}  5/5 600 м 
[Sc]
+13 +9.3 78 +14  1004.9  743  284           
18 13.09.11 тихо ()   10 км  {дождь}  1/0 средняя 
[Ac lent]
+10.4 +7.5 82 +10  1006  0.9  744  287    +14.7  0.0     
21 13.09.11 тихо ()   10 км    ясно 
+8.2 +6 86 +8  1006.9  0.8  744  290           
00 14.09.11 тихо ()   10 км    10/0 средняя 
[As trans]
+8 +6 87 +8  1007.7  0.8  745  291           
03 14.09.11 тихо ()   >10 км    10/10 600 м 
[Sc]
+8.9 +7.2 89 +9  1008.4  0.8  746  290           
06 14.09.11 280 (З) >10 км    10/10 600 м 
[Sc]
+10.2 +7.9 86 +11  1008.5  0.1  746  288  +8         
09 14.09.11 300 (СЗ) >10 км    10/10 600 м 
[Sc]
+13 +9.5 79 +14  1008.4  0.1  746  285           
12 14.09.11 180 (Ю) >10 км    8/1 600 м средняя 
[Sc|Ac cast]
+13.6 +8.2 70 +15  1009.6  1.2  747  285           
15 14.09.11 170 (Ю) 10 км  {дождь}  10/10 600 м 
[Sc]
+12.9 +9.6 80 +15  1008.9  -0.7  746  285           
18 14.09.11 200 (Ю) 10 км  {дождь}  9/9 600 м 
[Sc]
+13.6 +11.3 86 +18  1008.5  -0.4  746  284    +13.9  0.0     
21 14.09.11 220 (ЮЗ) 10 км  слаб. дождь  10/10 600 м 
[Sc]
+14 +11.8 87 +19  1007.6  -0.9  745  283           
00 15.09.11 190 (Ю) 10 км  {дождь}  9/9 600 м 
[Sc]
+13.9 +12.4 91 +20  1006.5  -1.1  744  283           
03 15.09.11 200 (Ю) 10 км  в посл. час дождь  9/0 средняя 
[Ac cast]
+14 +13.1 94 +21  1006  -0.5  744  283           
06 15.09.11 190 (Ю) 10 км  в посл. час дождь  9/9 600 м 
[Sc]
+15.4 +14 91 +24  1005.7  -0.2  744  281  +12    0.8     
12 15.09.11 280 (З) >10 км  {дождь}  1/1 600 м 
[Cu hum]
+20.1 +5.9 39 +20  1007  0.7  745  279           
15 15.09.11 260 (З) >10 км    1/1 600 м 
[Cu hum]
+17.9 +5.6 44 +19  1008.6  1.5  746  281           
18 15.09.11 260 (З) 10 км    4/0 средняя 
[Ac cast]
+14.4 +9.1 70 +16  1009.7  0.9  747  284    +20.3     
21 15.09.11 170 (Ю) 10 км    10/10 600 м 
[Sc]
+12.8 +9.7 81 +15  1010.4  0.7  747  286           
00 16.09.11 260 (З) 10 км    4/0 средняя 
[Ac lent]
+11.9 +9.3 84 +13  1011.1  0.6  748  287           
03 16.09.11 160 (Ю) >10 км    4/0 средняя 
[Ac cast]
+10.6 +8.4 86 +12  1011.3  0.3  748  289           
06 16.09.11 170 (Ю) >10 км    8/0 средняя, верхняя 
[Ac cast|Ci fib]
+16.1 +9.8 66 +18  1010.9  -0.3  748  283  +9.7         
09 16.09.11 200 (Ю) >10 км    9/0 средняя, верхняя 
[Ac lent|Cc]
+18.2 +9.3 56 +20  1009.7  -1.1  747  280           
12 16.09.11 190 (Ю) >10 км    4/1 600 м средняя 
[Cu hum|Ac cast]
+19.2 +9.4 53 +20  1008.6  -1  746  279           
15 16.09.11 180 (Ю) >10 км    4/1 600 м верхняя 
[Sc diur, vesp|Ci fib]
+15 +10 72 +17  1007.9  -0.9  745  283           
18 16.09.11 тихо ()   10 км    4/4 600 м 
[Sc]
+13.5 +11.2 86 +16  1007.7  -0.3  745  284    +20.1       
21 16.09.11 190 (Ю) 10 км    8/8 600 м 
[Sc]
+13.3 +11.4 88 +18  1007.3  -0.4  745  284           
00 17.09.11 270 (З) 10 км    1/1 600 м 
[Sc]
+12.3 +10.4 88 +15  1007.8  0.4  745  285           
03 17.09.11 280 (З) >10 км    3/0 средняя 
[Ac lent]
+10.6 +9 90 +12  1009  1.1  746  288           
06 17.09.11 290 (З) >10 км    3/0 верхняя 
[Ci fib]
+12.5 +8.9 79 +14  1009.7  0.8  747  286  +10.3         
09 17.09.11 300 (СЗ) >10 км    9/9 600 м 
[Sc]
+14.5 +4.9 53 +15  1009.7  0.1  747  285           
12 17.09.11 230 (ЮЗ) >10 км    6/1 600 м средняя 
[Cu Sc|Ac cast]
+16.4 +5.1 47 +18  1009.3  -0.3  746  283           
15 17.09.11 тихо ()   >10 км    1/0 средняя 
[Ac cast]
+13.7 +8.3 70 +14  1009  -0.4  746  285           
18 17.09.11 310 (СЗ) 10 км  слаб. дождь  10/10 600 м 
[Sc]
+11.9 +6.9 71 +12  1009.8  0.7  747  287           
21 17.09.11 170 (Ю) 10 км  {дождь}  3/3 600 м 
[Sc]
+9.6 +7.3 86 +11  1009.3  -0.5  746  289           
00 18.09.11 тихо ()   10 км  {дождь}  9/0 средняя 
[Ac lent]
+9.2 +7.5 89 +9  1009.7  0.3  747  290           
03 18.09.11 тихо ()   >10 км    8/4 1000 м средняя 
[Sc|Ac cast]
+10.4 +7.7 83 +10  1009.6  -0.1  746  288           
06 18.09.11 260 (З) >10 км  в посл. час дождь  10/10 600 м 
[Sc]
+10.8 +9.2 90 +12  1010.2  0.7  747  288    +9.1  0.6     
09 18.09.11 280 (З) >10 км    10/10 600 м 
[Sc]
+13.3 +9.8 79 +15  1011.2  1.1  748  286           
12 18.09.11 290 (З) >10 км  {дождь}  9/9 600 м 
[Sc]
+13.8 +9.1 73 +14  1011.9  0.6  748  285           
15 18.09.11 320 (СЗ) >10 км    3/0 средняя 
[Ac lent]
+12 +7.9 76 +13  1013.1  1.1  749  288           
18 18.09.11 320 (СЗ) 10 км    1/0 средняя 
[Ac cast]
+10.9 +7.4 79 +12  1014.2  1.1  750  289    +14.9  0.0     
21 18.09.11 320 (СЗ) 10 км    ясно 
+8.9 +7 88 +10  1015.4  1.1  751  292           
00 19.09.11 310 (СЗ) 10 км    9/9 600 м 
[Sc]
+7.8 +6 88 +8  1016.8  1.3  752  294           
03 19.09.11 310 (СЗ) 10 км    9/9 600 м 
[Sc]
+7.6 +6.3 91 +8  1018.1  1.2  753  294           
06 19.09.11 310 (СЗ) >10 км    10/0 средняя 
[Ac cast]
+9.7 +6.7 82 +11  1019.6  1.6  754  292  +7.6         
09 19.09.11 330 (СЗ) >10 км    10/6 600 м средняя 
[Cu med, cong|Ac cast]
+12.5 +5.4 62 +14  1020.1  0.6  754  290           
12 19.09.11 330 (СЗ) >10 км    10/0 средняя 
[Ac cast]
+13.3 +2.7 49 +15  1019.8  -0.2  754  289           
15 19.09.11 300 (СЗ) 10 км    6/0 средняя 
[Ac lent]
+12.5 +3.6 55 +14  1019.8  -0.1  754  290           
18 19.09.11 тихо ()   10 км    10/0 средняя 
[Ac cast]
+9.3 +6 80 +9  1020.1  0.2  754  293    +13.6       
21 19.09.11 310 (СЗ) 10 км    10/6 600 м средняя 
[Sc|Ac cast]
+10.3 +6.7 78 +11  1019.5  -0.6  754  292           
00 20.09.11 330 (СЗ) 10 км    10/0 средняя 
[Ac cast]
+9 +6.9 87 +10  1019.7  0.2  754  293           
03 20.09.11 340 (С) >10 км    10/10 600 м 
[Sc]
+8.1 +6.1 87 +9  1020.2  0.4  754  294           
06 20.09.11 330 (СЗ) >10 км    10/10 200 м 
[Frnb]
+8.2 +5.8 85 +8  1021.1  0.9  755  294  +7.9         
09 20.09.11 340 (С) >10 км    9/9 600 м 
[Sc]
+10.9 +3.1 59 +11  1020.5  -0.5  755  292           
12 20.09.11 330 (СЗ) >10 км    10/3 600 м средняя, верхняя 
[Cu Sc|Ac cast|Ci fib]
+12.6 -0.3 41 +13  1020  -0.4  754  291           
15 20.09.11 310 (СЗ) 10 км    9/6 600 м средняя, верхняя 
[Sc diur, vesp|Ac lent|Ci fib]
+10 +1.4 55 +10  1020.4  0.3  754  293           
18 20.09.11 310 (СЗ) 10 км    3/3 600 м 
[Sc]
+8.7 +1.4 60 +10  1020.5  754  294    +13.3       
21 20.09.11 040 (СВ) 10 км    6/6 600 м 
[Sc]
+7.1 +2.8 74 +8  1019.5  -1.1  754  296           
00 21.09.11 тихо ()   10 км    10/10 300 м 
[St]
+4.9 +3 87 +5  1018.1  -1.5  752  297           
03 21.09.11 тихо ()   >10 км    10/10 600 м 
[Sc]
+5.8 +3.7 86 +6  1016.6  -1.3  752  296           
06 21.09.11 110 (В) 10 км  слаб. дождь  10/10 300 м 
[Ns]
+5.8 +3.7 86 +6  1014.5  -2.1  750  295  +4.6    0.0     
09 21.09.11 110 (В) 10 км  слаб. дождь  10/10 300 м 
[Frnb|Ns]
+6.6 +4.3 85 +6  1013.3  -1.2  749  294           
12 21.09.11 070 (В) 10 км  слаб. дождь  10/10 300 м 
[Ns]
+6.6 +3.5 81 +8  1012.9  -0.4  749  294           
15 21.09.11 360 (С) 10 км  {дождь}  10/0 средняя 
[Ac cast]
+6.8 +4.5 85 +8  1013  0.1  749  294           
18 21.09.11 010 (С) 10 км  {дождь}  1/1 600 м 
[Sc]
+6 +3.6 85 +7  1013.9  0.9  749  295    +6.8     
21 21.09.11 020 (С) 10 км    1/0 средняя 
[Ac lent]
+3.8 +1.8 87 +5  1014.3  0.3  750  298           
00 22.09.11 320 (СЗ) 10 км    1/0 средняя 
[Ac lent]
+3.6 +1.6 87 +4  1014.7  0.4  750  298           
03 22.09.11 030 (СВ) >10 км    ясно 
+2.1 +1.3 95 +3  1015.4  0.6  750  300           
06 22.09.11 320 (СЗ) >10 км    3/3 600 м 
[Cu hum]
+5.4 +1.6 76 +5  1015.7  0.5  751  296  +1.9         
09 22.09.11 320 (СЗ) >10 км    4/4 600 м 
[Cu med, cong]
+7.9 -0.3 56 +7  1015.4  -0.2  751  294           
12 22.09.11 320 (СЗ) >10 км    6/6 600 м 
[Cu med, cong]
+9 +0.9 57 +9  1014.9  -0.5  750  293           
15 22.09.11 300 (СЗ) 10 км    6/1 600 м средняя, верхняя 
[Sc diur, vesp|Ac lent|Ci fib]
+8.8 +0 54 +9  1014.6  -0.3  750  293           
18 22.09.11 тихо ()   10 км    8/0 средняя 
[Ac cast]
+6.6 +0.5 65 +7  1014.6  -0.1  750  295    +10.3       
21 22.09.11 тихо ()   10 км    5/0 средняя 
[Ac cast]
+3.6 +2.3 91 +4  1014.3  -0.4  750  298           
00 23.09.11 160 (Ю) 10 км    10/0 средняя 
[As op]
+5.8 +3.4 85 +7  1013.2  -0.9  749  295           
03 23.09.11 160 (Ю) 10 км    10/0 средняя 
[As op]
+5.8 +3.9 88 +7  1013  -0.3  749  295           
06 23.09.11 150 (ЮВ) 10 км  слаб. морось  10/10 300 м 
[St]
+7.4 +6.5 94 +8  1012.4  -0.5  748  293  +3.5         
09 23.09.11 160 (Ю) >10 км  {морось}  10/10 300 м 
[St]
+8.8 +8.2 96 +10  1011.6  -0.7  748  291           
12 23.09.11 160 (Ю) >10 км  слаб. дождь{морось}  10/10 600 м 
[Sc]
+10.2 +9.4 95 +11  1011  -0.5  748  289           
15 23.09.11 150 (ЮВ) 10 км  {дождь}  10/10 600 м 
[Sc]
+11.6 +10.4 92 +14  1010.1  -0.8  747  287           
18 23.09.11 160 (Ю) 10 км  {дождь}  10/10 600 м 
[Sc]
+12 +10.9 93 +15  1009.4  -0.7  746  286    +11.6       
21 23.09.11 190 (Ю) 10 км    3/0 средняя 
[Ac lent]
+12.8 +9.7 81 +14  1008.3  -1  746  285           
00 24.09.11 тихо ()   10 км    4/0 средняя 
[Ac lent]
+12.2 +9.4 83 +14  1007.9  -0.5  708  271           
06 24.09.11 260 (З) 10 км  {дождь}  10/10 200 м кучево-дожд. 
[Cb cap]
+12.3 +8.9 80 +13  1007.3  0.2  745  286  +11.4         
09 24.09.11 210 (ЮЗ) 10 км  слаб. дождь{ливн. осадки}  10/10 200 м 
[Frnb]
+11.2 +10.2 94 +14  1008.3  746  287           
12 24.09.11 250 (З) >10 км  {ливн. осадки, дождь}  10/10 200 м 
[Frnb]
+12.1 +11 93 +15  1008.9  0.6  746  286           
15 24.09.11 180 (Ю) 10 км    10/10 200 м 
[Frnb]
+11.3 +10.3 94 +14  1008.9  746  287           
18 24.09.11 150 (ЮВ) 10 км  {дождь}  10/10 200 м 
[Frnb]
+10.7 +9.9 95 +13  1009.3  0.4  746  288    +12.4     
21 24.09.11 160 (Ю) 10 км  {дождь}  10/10 300 м 
[Frnb]
+10.6 +10 96 +13  1009.3  -0.1  746  288           
00 25.09.11 250 (З) 10 км  {дождь}  10/10 300 м 
[Frnb]
+10.3 +9.7 96 +12  1009.3  746  288           
03 25.09.11 тихо ()   10 км    10/10 200 м 
[Frnb]
+10.2 +9.6 96 +11  1009.2  -0.1  746  288           
06 25.09.11 тихо ()   10 км    10/10 200 м 
[St]
+10.4 +9.6 95 +11  1009.2  746  288  +10.1       
09 25.09.11 тихо ()   4000 м  дождь  10/10 200 м 
[Frnb|Ns]
+11.2 +10 92 +12  1008.9  -0.2  746  287           
12 25.09.11 тихо ()   10 км  {дождь}  10/10 200 м 
[St]
+11.5 +10.1 91 +13  1008.8  -0.1  746  287           
15 25.09.11 тихо ()   4000 м  дымка  10/10 300 м 
[Sc]
+11.1 +10.1 94 +13  1008.6  -0.2  746  287           
18 25.09.11 тихо ()   10 км  слаб. дождь  10/10 300 м 
[Ns]
+9.4 +8.2 92 +9  1008.4  -0.3  746  289    +11.5     
21 25.09.11 010 (С) 10 км  {дождь}  10/10 600 м 
[Sc]
+9 +8 93 +10  1007.2  -1.2  745  289           
00 26.09.11 010 (С) 10 км  {дождь}  10/10 600 м 
[Sc]
+9 +8 93 +9  1005.8  -1.4  744  289           
03 26.09.11 020 (С) 10 км  {дождь}  10/10 300 м 
[Sc]
+8.5 +6.6 88 +10  1005  -0.9  743  289           
06 26.09.11 310 (СЗ) >10 км  {дождь}  10/10 600 м 
[Sc]
+8 +6 87 +8  1004.4  -0.6  743  290  +8       
09 26.09.11 300 (СЗ) >10 км    10/10 600 м 
[Sc]
+9 +5.7 80 +9  1004.7  0.3  743  289           
12 26.09.11 340 (С) 2{11}  >10 км    10/10 600 м 
[Sc]
+9 +4.7 74 +9  1006.1  1.4  744  289           
15 26.09.11 320 (СЗ) 2-10{10}  >10 км    10/10 600 м 
[Sc]
+8.9 +4.4 73 +9  1008.2  2.1  745  290           
18 26.09.11 320 (СЗ) 10 км    10/3 600 м средняя 
[Sc|Ac lent]
+8.1 +4.5 78 +7  1009.1  0.9  746  291    +9.1       
21 26.09.11 320 (СЗ) 10 км    8/8 600 м 
[Sc]
+8.2 +5.3 82 +8  1009.5  0.4  746  291           
00 27.09.11 300 (СЗ) 10 км    4/4 600 м 
[Sc]
+7.5 +4.8 83 +7  1010  0.5  747  292           
03 27.09.11 290 (З) 10 км  слаб. дождь  10/10 600 м 
[Sc]
+7.1 +5.8 91 +6  1010.1  0.1  747  292           
06 27.09.11 300 (СЗ) >10 км  {дождь}  10/10 600 м 
[Sc]
+6.9 +5.3 90 +7  1010.9  0.7  747  293  +7.1       
09 27.09.11 310 (СЗ) >10 км    10/10 600 м 
[Sc]
+8 +4.1 76 +8  1011.9  1.1  748  292           
12 27.09.11 310 (СЗ) >10 км  в посл. час ливневой дождь  10/4 300 м средняя, верхняя 
[Frnb|Ac cast|Ci fib]
+8.1 +4.2 76 +8  1013.1  1.1  749  292           
15 27.09.11 310 (СЗ) 10 км    10/10 600 м 
[Sc]
+8.6 +3.5 70 +9  1013.7  0.6  749  292           
18 27.09.11 310 (СЗ) 10 км    10/10 600 м 
[Sc]
+7.6 +3.9 77 +9  1013.9  0.4  750  293    +9.6     
21 27.09.11 300 (СЗ) 10 км    10/10 600 м 
[Sc]
+7.2 +4 80 +7  1014.4  0.4  750  294           
00 28.09.11 290 (З) 10 км    8/4 600 м средняя 
[Cu med, cong|Ac cast]
+7.5 +5.3 86 +8  1014  -0.3  750  293           
03 28.09.11 280 (З) 10 км    10/10 600 м 
[Sc]
+7 +5.7 91 +8  1014.1  750  294           
06 28.09.11 280 (З) >10 км    8/3 600 м средняя, верхняя 
[Cu med, cong|Ac lent|Ci fib]
+8.4 +5 79 +9  1014  750  292  +6.8         
09 28.09.11 250 (З) >10 км    9/6 1000 м средняя, верхняя 
[Sc|Ac cast|Ci fib]
+10.6 +1.9 55 +11  1012.6  -1.3  749  290           
12 28.09.11 160 (Ю) >10 км    9/5 1000 м средняя 
[Sc|Ac cast]
+10.8 +2.4 56 +12  1011.5  -1  748  290           
15 28.09.11 150 (ЮВ) 10 км    10/10 1000 м 
[Sc]
+9.4 +4.7 72 +9  1010.7  -0.8  747  290           
18 28.09.11 140 (ЮВ) 10 км    10/10 1000 м 
[Sc]
+8.6 +6 84 +10  1009.7  -1.1  746  291    +11.8       
21 28.09.11 100 (В) 10 км    10/10 1000 м 
[Sc]
+8 +6.3 89 +9  1007.5  -2.2  745  291           
00 29.09.11 070 (В) 10 км    10/10 1000 м 
[Sc]
+7.3 +5.5 88 +7  1005.8  -1.7  744  291           
03 29.09.11 110 (В) 10 км    10/10 1000 м 
[Sc]
+6.2 +4.8 91 +7  1004.3  -1.6  742  292           
06 29.09.11 030 (СВ) 10 км  в посл. час морось{дождь}  10/10 300 м 
[St]
+6.7 +4.9 88 +7  1003.7  -0.6  742  291  +6    0.0     
09 29.09.11 030 (СВ) 10 км    10/1 1000 м средняя 
[Cu hum|Ac As]
+9.5 +3.8 68 +10  1003.8  0.3  742  288           
12 29.09.11 340 (С) 10 км    10/1 1000 м средняя, верхняя 
[Cu hum|Ac As|Ci fib]
+10.4 +2.5 58 +11  1005.6  1.8  743  288           
15 29.09.11 310 (СЗ) 10 км    10/0 средняя, верхняя 
[Ac As|Ci fib]
+9.6 +2.8 63 +11  1007.7  2.1  745  290           
18 29.09.11 тихо ()   10 км    9/9 600 м 
[Sc]
+8.5 +4.9 78 +9  1009.7  1.9  746  291    +11.4  0.0     
21 29.09.11 тихо ()   10 км    3/3 600 м 
[Sc]
+6.5 +4.7 88 +7  1011.5  1.7  748  294           
00 30.09.11 тихо ()   10 км    9/9 600 м 
[Sc]
+6.2 +4.8 91 +6  1012.2  0.6  748  294           
03 30.09.11 тихо ()   >10 км    9/9 600 м 
[Sc]
+6.9 +5.8 93 +7  1013.2  749  293           
06 30.09.11 330 (СЗ) >10 км    10/10 600 м 
[Sc]
+8.2 +6 86 +9  1014.1  750  292  +6.1         
09 30.09.11 290 (З) >10 км    8/4 600 м средняя 
[Cu med, cong|Ac cast]
+10.1 +6 76 +11  1014  750  290           
12 30.09.11 260 (З) >10 км    4/4 600 м 
[Cu med, cong]
+11.2 +4.3 62 +12  1013.8  -0.1  750  289           
15 30.09.11 270 (З) 10 км    8/4 600 м средняя 
[Cu med, cong|Ac cast]
+8.6 +5.3 80 +10  1013.4  -0.6  749  292           
18 30.09.11 тихо ()   10 км    3/0 средняя 
[Ac cast]
+6.6 +4.8 88 +7  1012.1  -1.4  748  294    +11.7       
21 30.09.11 тихо ()   10 км    8/0 средняя 
[Ac cast]
+6.3 +5.2 93 +6  1009.8  -2.2  746  293           
00 01.10.11 200 (Ю) 10 км    10/0 средняя 
[Ac cast]
+6.2 +4.1 86 +7  1007.2  -2.6  745  293           
03 01.10.11 240 (ЮЗ) 10 км    10/0 средняя 
[Ac As]
+6.2 +2.8 79 +7  1004  -3.2  742  292           
06 01.10.11 190 (Ю) 10 км  слаб. дождь  10/10 600 м 
[Sc]
+6.2 +4.8 91 +7  1001.6  -2.3  740  291  +5.8         
09 01.10.11 200 (Ю) 10 км  дождь  10/10 300 м 
[Ns]
+6.9 +5.6 91 +8  999.8  -1.8  739  290           
12 01.10.11 180 (Ю) 10 км  слаб. дождь  10/10 300 м 
[Ns]
+7.4 +6.3 93 +8  998.3  -1.4  738  288           
15 01.10.11 160 (Ю) 10 км  слаб. дождь  10/10 300 м 
[Ns]
+7 +6.3 95 +8  997.8  -0.5  738  289           
18 01.10.11 150 (ЮВ) 10 км  слаб. дождь  10/10 300 м 
[Ns]
+7 +6.6 97 +7  996.3  -1.4  737  288    +7.4     
21 01.10.11 110 (В) 10 км  слаб. дождь  10/10 300 м 
[Ns]
+6.6 +6.4 99 +8  996.2  -0.2  736  289           
00 02.10.11 080 (В) 10 км  слаб. дождь  10/10 300 м 
[Ns]
+6.4 +6.2 99 +7  996.3  0.1  737  289           
03 02.10.11 050 (СВ) 10 км  слаб. дождь  10/10 300 м 
[Ns]
+6.4 +5.3 93 +6  996.4  0.1  737  289           
06 02.10.11 050 (СВ) >10 км  {дождь}  9/4 1000 м средняя 
[Sc|Ac cast]
+7.5 +6 90 +8  996.6  0.3  737  288  +6.4       
09 02.10.11 020 (С) >10 км    10/10 300 м 
[St]
+7.8 +5.6 86 +8  997.6  0.9  737  288           
Время (UTC), дата Ветер
(°,м/с) 
Видим.   Явления Облачность Т
(°С)
Тd
(°С)
f(%) Тe
(°С)
Pmin
(гПа)
dP
(гПа)
Po
(мм)
O2
(г/м3)
Тmin Tmax R s Состояние
почвы